User: anonymous   Login
Location: Le Petit-Vavre
(46.5081°N, 1.5239°E)
Time: 04:48:52
(UTC+00:00)
Language:

Cosmos 2219 Rocket - Orbit

View from above orbital plane
View from above orbital plane
View from above satellite
View from above satellite

Ground track
Ground track

The orbit data is extracted from the following two-line orbital elements,

1 22220U 92076B   21125.26550179 -.00000236  00000-0 -94328-4 0  9991
2 22220  70.9994 314.1448 0015133 271.5784 262.2795 14.16468493471247
Epoch (UTC): 05 May 2021 06:22:19
Eccentricity: 0.0015133
inclination: 70.9994°
perigee height: 826 km
apogee height: 848 km
right ascension of ascending node: 314.1448°
argument of perigee: 271.5784°
revolutions per day: 14.16468493
mean anomaly at epoch: 262.2795°
orbit number at epoch: 47124

The dashed part of the orbit path shows where the satellite is in the earth's shadow,  

DLR